Estación Meteorológica Peña el Pijo (Robertgarden) [ 09/28/20 21:25:52 CEST ]

Fecha Hora Presion(HPa) Temp (°C) Humedad % Rocio (°C) Viento ( m/s) Direccion Lluvia 1Hora(mm) Lluvia 24H(mm) LLuvia Total(mm)
2020-Mar-29 01:09:29 1008.000 - - - - N     39.88
2020-Mar-29 03:10:33 1008.000 - - - - N     39.88
2020-Mar-29 04:13:27 1007.400 - - - - N     39.88
2020-Mar-29 05:09:34 1007.000 - - - - N     39.88
2020-Mar-29 06:09:32 1006.700 - - - - N     39.88
2020-Mar-29 07:09:44 1006.800 - - - - N     39.88
2020-Mar-29 08:09:37 1006.900 - - - - N     39.88
2020-Mar-29 09:09:05 1007.200 - - - - N     39.88
2020-Mar-29 10:09:27 1007.300 - - - - N     39.88
2020-Mar-29 11:09:03 1007.100 - - - - N     39.88
2020-Mar-29 12:09:17 1006.800 - - - - N     39.88
2020-Mar-29 13:09:01 1006.400 - - - - N     39.88
2020-Mar-29 14:09:16 1005.900 - - - - N     39.88
2020-Mar-29 15:09:09 1005.200 - - - - N     39.88
2020-Mar-29 16:09:07 1004.700 - - - - N     39.88
2020-Mar-29 17:09:11 1004.000 - - - - N     39.88
2020-Mar-29 18:09:28 1003.900 - - - - N     39.88
2020-Mar-29 19:09:16 1004.100 - - - - N     39.88
2020-Mar-29 20:09:21 1004.300 - - - - N     39.88
2020-Mar-29 21:08:50 1004.700 - - - - N     39.88
2020-Mar-29 22:08:57 1005.000 - - - - N     39.88
2020-Mar-29 23:08:57 1005.000 - - - - N     39.88

Temperatura Máxima:    Temperatura Mínima:
Presión Máxima:1008.000 Hpa    Presión Mínima:1003.900 Hpa


Volver